Location: Cheching
(60.0667°N, 164.2167°W)
Time: 00:30:54
(UTC+00:00)

DX 1 - Pass Details

Date: 24 January 2021
Orbit: 618 x 631 km, 98.5° (Epoch: 07 March)

Event Time Altitude Azimuth Distance (km) Brightness Sun altitude
Rises 17:32:36 0° 196° (SSW) 2,910 ? -13.5°
Reaches altitude 10° 17:35:05 10° 208° (SSW) 2,006 ? -13.2°
Maximum altitude 17:38:47 27° 267° (W) 1,222 ? -12.8°
Enters shadow 17:41:45 14° 318° (NW) 1,760 ? -12.4°
